FW3267 Weather Reports


time (UTC)temp
F
wind
direction
speed
knots
gust
knots
rain 1hr
in
rain 24hr
in
rain mn
in
humidity
%
barometer
mb
20260906155151 80 212 0.9 7.0 0.00 0.00 0.00 84 1018.8
20260906154646 80 143 0.9 8.7 0.00 0.00 0.00 84 1018.9
20260906154139 80 130 0.9 8.7 0.00 0.00 0.00 83 1018.9
20260906153633 80 193 0.9 5.2 0.00 0.00 0.00 84 1019.0
20260906153128 80 101 0.9 5.2 0.00 0.00 0.00 83 1019.0
20260906152622 80 145 0.9 7.0 0.00 0.00 0.00 85 1019.0
20260906152115 79 197 0.9 7.0 0.00 0.00 0.00 86 1019.0
20260906151609 79 127 0.0 6.1 0.00 0.00 0.00 88 1019.0
20260906151103 78 156 0.9 6.1 0.00 0.00 0.00 86 1019.0
20260906150557 78 175 0.9 5.2 0.00 0.00 0.00 86 1019.0
20260906150051 79 120 0.9 7.0 0.00 0.00 0.00 86 1019.0
20260906145039 78 116 0.9 6.1 0.00 0.00 0.00 88 1019.0
20260906144534 78 105 0.9 7.8 0.00 0.00 0.00 88 1019.0
20260906144026 78 164 0.9 7.8 0.00 0.00 0.00 89 1018.9
20260906143521 78 117 0.0 6.1 0.00 0.00 0.00 89 1018.8
20260906143015 77 172 0.0 4.3 0.00 0.00 0.00 90 1018.7
20260906142508 77 156 0.0 5.2 0.00 0.00 0.00 91 1018.7
20260906142003 76 134 0.0 5.2 0.00 0.00 0.00 91 1018.8
20260906141458 76 123 0.0 4.3 0.00 0.00 0.00 92 1018.8
20260906140445 75 177 0.0 3.5 0.00 0.00 0.00 92 1018.8
20260906135939 75 129 0.0 4.3 0.00 0.00 0.00 93 1018.8
20260906135434 75 111 0.0 4.3 0.00 0.00 0.00 93 1018.8
20260906134928 75 129 0.0 0.9 0.00 0.00 0.00 93 1018.8
20260906133916 75 224 0.0 1.7 0.00 0.00 0.00 94 1018.7
20260906133409 74 137 0.0 1.7 0.00 0.00 0.00 95 1018.7
20260906132903 74 113 0.0 1.7 0.00 0.00 0.00 95 1018.7
20260906132357 74 131 0.0 3.5 0.00 0.00 0.00 95 1018.6
20260906131348 73 129 0.0 2.6 0.00 0.00 0.00 95 1018.5
20260906130848 73 72 0.0 1.7 0.00 0.00 0.00 95 1018.4
20260906130347 72 126 0.0 0.0 0.00 0.00 0.00 95 1018.4
20260906125852 72 98 0.0 0.0 0.00 0.00 0.00 95 1018.3
20260906125351 71 109 0.0 0.0 0.00 0.00 0.00 95 1018.4
20260906124848 71 91 0.0 0.0 0.00 0.00 0.00 95 1018.4
20260906124347 71 117 0.0 0.9 0.00 0.00 0.00 95 1018.4
20260906123846 71 134 0.0 0.9 0.00 0.00 0.00 95 1018.5
20260906122847 71 94 0.0 0.0 0.00 0.00 0.00 95 1018.5
20260906122346 70 95 0.0 0.0 0.00 0.00 0.00 95 1018.5
20260906121848 70 95 0.0 0.0 0.00 0.00 0.00 95 1018.4
20260906121347 69 117 0.0 0.0 0.00 0.00 0.00 95 1018.4
20260906120851 69 120 0.0 0.0 0.00 0.00 0.00 95 1018.4
20260906120344 68 120 0.0 0.0 0.00 0.00 0.00 95 1018.4
20260906115845 68 120 0.0 0.0 0.00 0.00 0.00 95 1018.3
20260906115345 68 120 0.0 0.0 0.00 0.00 0.00 95 1018.2
20260906114839 68 120 0.0 0.0 0.00 0.00 0.00 95 1018.2
20260906114337 68 120 0.0 0.0 0.00 0.00 0.00 95 1018.3
20260906113834 68 120 0.0 0.0 0.00 0.00 0.00 95 1018.2
20260906113331 68 120 0.0 0.0 0.00 0.00 0.00 95 1018.2
20260906112832 68 120 0.0 0.0 0.00 0.00 0.00 95 1018.2
20260906112333 68 120 0.0 0.0 0.00 0.00 0.00 95 1018.2
20260906111829 68 120 0.0 0.0 0.00 0.00 0.00 95 1018.1
20260906111330 68 120 0.0 0.0 0.00 0.00 0.00 95 1018.0
20260906110833 68 120 0.0 0.0 0.00 0.00 0.00 95 1018.0
20260906110330 68 120 0.0 0.0 0.00 0.00 0.00 95 1018.1
20260906105833 68 120 0.0 0.0 0.00 0.00 0.00 95 1018.1
20260906105327 68 120 0.0 0.0 0.00 0.00 0.00 95 1018.1
20260906104826 68 120 0.0 0.0 0.00 0.00 0.00 95 1018.0
20260906103823 68 120 0.0 0.0 0.00 0.00 0.00 95 1018.0
20260906103325 68 120 0.0 0.0 0.00 0.00 0.00 95 1018.0
20260906102825 68 120 0.0 0.0 0.00 0.00 0.00 95 1018.0
20260906102320 68 120 0.0 0.0 0.00 0.00 0.00 95 1017.7
20260906101313 68 120 0.0 0.0 0.00 0.00 0.00 95 1017.6
20260906100813 68 124 0.0 0.0 0.00 0.00 0.00 95 1017.5
20260906100313 68 124 0.0 0.0 0.00 0.00 0.00 95 1017.6
20260906095814 68 124 0.0 0.0 0.00 0.00 0.00 95 1017.7
20260906094810 69 124 0.0 0.0 0.00 0.00 0.00 95 1017.7
20260906094310 69 124 0.0 0.0 0.00 0.00 0.00 95 1017.7
20260906093810 69 124 0.0 0.0 0.00 0.00 0.00 95 1017.6
20260906093308 69 124 0.0 0.0 0.00 0.00 0.00 95 1017.5
20260906092805 69 124 0.0 0.0 0.00 0.00 0.00 95 1017.3
20260906092307 69 124 0.0 0.0 0.00 0.00 0.00 95 1017.3
20260906091810 70 120 0.0 0.0 0.00 0.00 0.00 95 1017.3
20260906091304 70 114 0.0 0.0 0.00 0.00 0.00 95 1017.3
20260906090805 70 109 0.0 0.0 0.00 0.00 0.00 95 1017.3
20260906090305 70 115 0.0 0.0 0.00 0.00 0.00 95 1017.3
20260906085759 70 115 0.0 0.0 0.00 0.00 0.00 95 1017.2
20260906085258 70 116 0.0 0.0 0.00 0.00 0.00 95 1017.3
20260906084800 70 115 0.0 0.0 0.00 0.00 0.00 95 1017.3
20260906084258 70 115 0.0 0.0 0.00 0.00 0.00 95 1017.3
20260906083757 70 115 0.0 0.0 0.00 0.00 0.00 95 1017.3
20260906083256 70 116 0.0 0.0 0.00 0.00 0.00 95 1017.2
20260906082757 70 116 0.0 0.0 0.00 0.00 0.00 95 1017.1
20260906082255 70 115 0.0 0.0 0.00 0.00 0.00 95 1017.0
20260906081756 71 115 0.0 0.0 0.00 0.00 0.00 95 1016.9
20260906081251 71 115 0.0 0.0 0.00 0.00 0.00 95 1017.0
20260906080752 71 115 0.0 0.0 0.00 0.00 0.00 95 1016.9
20260906080253 71 115 0.0 0.0 0.00 0.00 0.00 95 1017.0
20260906075755 71 132 0.0 0.0 0.00 0.00 0.00 95 1016.9
20260906075252 71 133 0.0 0.0 0.00 0.00 0.00 95 1016.9
20260906073748 71 148 0.0 0.0 0.00 0.00 0.00 95 1016.8
20260906072746 71 117 0.0 0.0 0.00 0.00 0.00 94 1017.0
20260906072247 72 117 0.0 0.0 0.00 0.00 0.00 95 1017.1
20260906071747 72 117 0.0 0.0 0.00 0.00 0.00 95 1017.1
20260906070746 72 128 0.0 0.0 0.00 0.00 0.00 95 1017.2
20260906070245 72 98 0.0 0.0 0.00 0.00 0.00 95 1017.4
20260906065748 72 98 0.0 0.0 0.00 0.00 0.00 95 1017.4
20260906065243 72 98 0.0 0.0 0.00 0.00 0.00 95 1017.3
20260906064745 72 98 0.0 0.0 0.00 0.00 0.00 95 1017.3
20260906063743 72 126 0.0 0.0 0.00 0.00 0.00 95 1017.5
20260906063243 72 125 0.0 0.0 0.00 0.00 0.00 95 1017.5
20260906062745 72 126 0.0 0.0 0.00 0.00 0.00 94 1017.5
20260906062241 72 125 0.0 0.0 0.00 0.00 0.00 94 1017.5
20260906061743 72 126 0.0 0.0 0.00 0.00 0.00 94 1017.5
20260906061240 72 125 0.0 0.0 0.00 0.00 0.00 94 1017.4
20260906060235 72 126 0.0 0.0 0.00 0.00 0.00 94 1017.4
20260906055737 72 117 0.0 0.0 0.00 0.00 0.00 94 1017.4
20260906055237 72 117 0.0 0.0 0.00 0.00 0.00 94 1017.3
20260906053735 72 117 0.0 0.0 0.00 0.00 0.00 94 1017.5
20260906053237 73 117 0.0 0.0 0.00 0.00 0.00 93 1017.4
20260906052737 73 117 0.0 0.0 0.00 0.00 0.00 93 1017.4
20260906052235 73 122 0.0 0.0 0.00 0.00 0.00 93 1017.4
20260906051735 73 123 0.0 0.0 0.00 0.00 0.00 93 1017.4
20260906051237 73 127 0.0 0.0 0.00 0.00 0.00 93 1017.4
20260906050737 73 123 0.0 0.0 0.00 0.00 0.00 93 1017.4
20260906050238 73 131 0.0 0.0 0.00 0.00 0.00 93 1017.4
20260906045736 74 138 0.0 0.0 0.00 0.00 0.00 93 1017.5
20260906045235 74 100 0.0 0.0 0.00 0.00 0.00 93 1017.6
20260906044739 74 112 0.0 0.0 0.00 0.00 0.00 93 1017.6
20260906044233 74 87 0.0 0.0 0.00 0.00 0.00 93 1017.6
20260906043226 74 103 0.0 0.0 0.00 0.00 0.00 93 1017.7
20260906042727 74 150 0.0 0.0 0.00 0.00 0.00 93 1017.7
20260906042237 74 141 0.0 0.0 0.00 0.00 0.00 93 1017.7
20260906041720 74 94 0.0 0.0 0.00 0.00 0.00 92 1017.6
20260906041220 74 105 0.0 0.0 0.00 0.00 0.00 92 1017.9
20260906040220 74 111 0.0 0.9 0.00 0.00 0.00 93 1017.7
20260906035720 74 111 0.0 0.9 0.00 0.00 0.00 92 1017.7
20260906035219 74 129 0.0 0.0 0.00 0.00 0.00 92 1017.7
20260906034216 74 124 0.0 0.0 0.00 0.00 0.00 91 1017.7
20260906033719 75 124 0.0 0.0 0.00 0.00 0.00 91 1017.7
20260906033212 75 109 0.0 0.0 0.00 0.00 0.00 91 1017.9
20260906032712 75 92 0.0 0.0 0.00 0.00 0.00 90 1017.7
20260906031710 75 90 0.0 0.0 0.00 0.00 0.00 90 1017.7
20260906031209 76 117 0.0 0.0 0.00 0.00 0.00 90 1017.7
20260906030710 76 112 0.0 0.0 0.00 0.00 0.00 90 1017.7
20260906030205 76 117 0.0 0.0 0.00 0.00 0.00 89 1017.9
20260906025657 76 124 0.0 0.0 0.00 0.00 0.00 89 1017.7
20260906025152 76 127 0.0 0.0 0.00 0.00 0.00 88 1017.6
20260906024647 76 120 0.0 0.0 0.00 0.00 0.00 88 1017.6
20260906024139 77 113 0.0 0.0 0.00 0.00 0.00 88 1017.6
20260906023635 77 122 0.0 0.0 0.00 0.00 0.00 88 1017.9
20260906023129 77 114 0.0 0.0 0.00 0.00 0.00 88 1017.9
20260906022622 77 155 0.0 0.0 0.00 0.00 0.00 87 1017.9
20260906022116 77 140 0.0 0.0 0.00 0.00 0.00 87 1017.9
20260906021611 77 142 0.0 0.0 0.00 0.00 0.00 87 1017.7
20260906021104 77 109 0.0 0.0 0.00 0.00 0.00 87 1017.6
20260906020052 77 132 0.0 0.0 0.00 0.00 0.00 86 1017.3
20260906015550 77 121 0.0 0.0 0.00 0.00 0.00 86 1017.1
20260906015049 77 136 0.0 0.0 0.00 0.00 0.00 85 1016.9
20260906014550 77 136 0.0 0.0 0.00 0.00 0.00 84 1016.7
20260906014048 78 102 0.0 0.0 0.00 0.00 0.00 84 1016.6
20260906013550 78 134 0.0 0.0 0.00 0.00 0.00 83 1016.4
20260906013050 78 131 0.0 0.0 0.00 0.00 0.00 82 1016.3
20260906012548 78 200 0.0 0.0 0.00 0.00 0.00 81 1016.1
20260906012051 79 152 0.0 0.0 0.00 0.00 0.00 81 1015.9
20260906011550 79 205 0.0 0.0 0.00 0.00 0.00 80 1015.8
20260906011052 80 167 0.0 0.9 0.00 0.00 0.00 79 1015.7
20260906010546 80 136 0.0 0.9 0.00 0.00 0.00 79 1015.6
20260906010046 80 135 0.0 0.9 0.00 0.00 0.00 78 1015.6
20260906005545 80 212 0.0 0.9 0.00 0.00 0.00 78 1015.6
20260906004546 80 129 0.0 0.0 0.00 0.00 0.00 76 1015.4
20260906004044 81 146 0.0 0.0 0.00 0.00 0.00 75 1015.4
20260906003546 81 125 0.0 0.0 0.00 0.00 0.00 74 1015.3
20260906002547 82 103 0.0 0.0 0.00 0.00 0.00 73 1015.2
20260906002043 82 103 0.0 0.0 0.00 0.00 0.00 72 1015.3
20260906001541 82 151 0.0 0.0 0.00 0.00 0.00 71 1015.3
20260906001042 83 149 0.0 0.0 0.00 0.00 0.00 71 1015.3
20260906000541 83 146 0.0 0.0 0.00 0.00 0.00 71 1015.2
20260906000041 83 112 0.0 0.0 0.00 0.00 0.00 70 1015.2
20260905235540 84 116 0.0 0.0 0.00 0.00 0.00 69 1015.1
20260905235042 84 108 0.0 1.7 0.00 0.00 0.00 68 1015.1
20260905234540 85 113 0.0 3.5 0.00 0.00 0.00 67 1015.1
20260905234042 85 89 0.0 3.5 0.00 0.00 0.00 67 1015.0
20260905233538 85 84 0.0 3.5 0.00 0.00 0.00 66 1015.1
20260905233037 86 88 0.0 5.2 0.00 0.00 0.00 66 1015.2
20260905232539 86 39 0.0 5.2 0.00 0.00 0.00 66 1015.3
20260905232038 86 72 0.0 1.7 0.00 0.00 0.00 65 1015.2
20260905231538 86 82 0.0 3.5 0.00 0.00 0.00 66 1015.2
20260905230536 86 125 0.9 6.1 0.00 0.00 0.00 66 1015.0
20260905230038 86 65 0.0 6.1 0.00 0.00 0.00 65 1015.0
20260905225538 87 65 0.0 1.7 0.00 0.00 0.00 66 1015.1
20260905225033 87 103 0.0 3.5 0.00 0.00 0.00 66 1015.1
20260905223532 87 66 0.9 4.3 0.00 0.00 0.00 66 1014.7
20260905223034 87 64 0.9 4.3 0.00 0.00 0.00 65 1014.7
20260905222535 87 47 0.9 6.1 0.00 0.00 0.00 65 1014.6
20260905222036 87 63 0.9 6.1 0.00 0.00 0.00 66 1014.7
20260905221537 87 104 1.7 7.0 0.00 0.00 0.00 66 1014.9
20260905221037 87 93 2.6 8.7 0.00 0.00 0.00 66 1014.7
20260905220532 87 74 1.7 8.7 0.00 0.00 0.00 65 1014.4
20260905220033 87 71 0.9 7.8 0.00 0.00 0.00 67 1014.5
20260905215533 87 84 1.7 7.0 0.00 0.00 0.00 68 1014.7
20260905215029 87 62 1.7 7.0 0.00 0.00 0.00 67 1014.7
20260905214531 87 78 0.9 5.2 0.00 0.00 0.00 67 1014.7
20260905214030 87 70 0.9 5.2 0.00 0.00 0.00 70 1014.6
20260905213531 87 84 0.9 7.8 0.00 0.00 0.00 70 1014.8
20260905213029 87 63 0.9 7.8 0.00 0.00 0.00 69 1014.8
20260905212530 87 98 0.9 8.7 0.00 0.00 0.00 69 1015.0
20260905212030 87 49 0.9 8.7 0.00 0.00 0.00 70 1015.1
20260905211030 87 78 0.9 7.0 0.00 0.00 0.00 71 1015.1
20260905210528 87 37 0.9 7.0 0.00 0.00 0.00 71 1015.1
20260905205530 87 65 0.9 5.2 0.00 0.00 0.00 70 1015.5
20260905205029 86 63 0.9 5.2 0.00 0.00 0.00 73 1015.5
20260905204530 86 67 0.9 5.2 0.00 0.00 0.00 74 1015.5
20260905204026 86 30 0.9 4.3 0.00 0.00 0.00 73 1015.6
20260905203527 85 44 1.7 8.7 0.00 0.00 0.00 76 1015.7
20260905203022 85 81 1.7 8.7 0.00 0.00 0.00 77 1015.8
20260905202514 85 21 0.9 7.8 0.00 0.00 0.00 75 1015.9
20260905202009 85 49 0.9 5.2 0.00 0.00 0.00 77 1015.9
20260905201510 84 82 0.9 4.3 0.00 0.00 0.00 78 1015.9
20260905201009 84 48 0.0 4.3 0.00 0.00 0.00 79 1016.0
20260905200011 83 53 0.9 5.2 0.00 0.00 0.00 81 1016.2
20260905195510 83 46 0.0 3.5 0.00 0.00 0.00 81 1016.3
20260905195007 83 58 0.0 3.5 0.00 0.00 0.00 81 1016.4
20260905194507 83 70 0.0 2.6 0.00 0.00 0.00 81 1016.6
20260905194004 83 84 0.0 3.5 0.00 0.00 0.00 83 1016.7
20260905193502 82 95 0.0 3.5 0.00 0.00 0.00 83 1016.6
20260905193003 81 98 0.9 7.0 0.00 0.00 0.00 84 1016.6
20260905192504 81 32 0.9 7.0 0.00 0.00 0.00 84 1016.7
20260905192003 81 79 0.9 8.7 0.00 0.00 0.00 84 1016.7
20260905191503 81 115 0.9 8.7 0.00 0.00 0.00 84 1016.7
20260905191004 81 85 0.0 3.5 0.00 0.00 0.00 84 1016.7
20260905190504 81 114 0.0 3.5 0.00 0.00 0.00 85 1016.8
20260905190005 80 39 0.0 5.2 0.00 0.00 0.00 85 1016.7
20260905185458 80 65 0.0 5.2 0.00 0.00 0.00 84 1016.8
20260905182955 77 92 0.0 0.9 0.00 0.00 0.00 90 1017.2
20260905182457 77 141 0.0 0.0 0.00 0.00 0.00 89 1017.4
20260905181955 77 117 0.0 0.0 0.00 0.00 0.00 90 1017.6
20260905181454 77 75 0.0 0.0 0.00 0.00 0.00 89 1017.7
20260905180450 76 127 0.0 0.9 0.00 0.00 0.00 90 1017.9
20260905175951 76 165 0.0 0.9 0.00 0.00 0.00 90 1017.9
20260905175448 76 165 0.0 0.9 0.00 0.00 0.00 90 1017.9
20260905174948 76 109 0.0 0.9 0.00 0.00 0.00 91 1017.9
20260905174450 75 141 0.0 0.9 0.00 0.00 0.00 91 1017.9
20260905173948 75 141 0.0 0.9 0.00 0.00 0.00 91 1018.2
20260905173450 75 169 0.0 0.9 0.00 0.00 0.00 92 1018.2
20260905172952 75 162 0.0 0.9 0.00 0.00 0.00 92 1018.3
20260905172446 74 121 0.0 4.3 0.00 0.00 0.00 92 1018.3
20260905171942 74 172 0.0 4.3 0.00 0.00 0.00 91 1018.4
20260905171435 74 120 0.0 2.6 0.00 0.00 0.00 91 1018.3
20260905170929 74 127 0.0 0.9 0.00 0.00 0.00 91 1018.3
20260905170422 74 110 0.0 1.7 0.00 0.00 0.00 92 1018.3
20260905165411 74 125 0.0 0.9 0.00 0.00 0.00 94 1018.2
20260905164905 73 68 0.0 0.9 0.00 0.00 0.00 94 1018.1
20260905164405 72 89 0.0 0.9 0.00 0.00 0.00 94 1018.1
20260905163404 72 64 0.0 2.6 0.00 0.00 0.00 94 1018.1
20260905162903 72 78 0.0 0.9 0.00 0.00 0.00 94 1018.3
20260905162400 72 73 0.0 0.9 0.00 0.00 0.00 95 1018.4
20260905161902 72 73 0.0 0.0 0.00 0.00 0.00 95 1018.3
20260905160900 71 127 0.0 0.0 0.00 0.00 0.00 95 1018.3
20260905155902 71 56 0.0 1.7 0.00 0.00 0.00 95 1018.3